Regional Weather Roundup
Issued by NWS Goodland, KS

Home | Current Version | Previous Version | Graphics & Text | Print | Product List | Glossary On
Versions: 1 2 3 4 5 6 7 8 9 10 11 12 13 14 15 16 17 18 19 20 21 22 23 24 25 26 27 28 29 30 31 32 33 34 35 36 37 38 39 40 41 42 43 44 45 46 47 48 49 50
000
ASUS43 KGLD 241908
RWRGLD

GOODLAND FORECAST AREA HOURLY WEATHER ROUNDUP
NATIONAL WEATHER SERVICE GOODLAND KS
100 PM MDT SUN SEP 24 2017

...OFFICIAL OBSERVATIONS...

CITY           SKY/WX    TMP DP  RH WIND       PRES   REMARKS
GOODLAND KS    LGT RAIN  52  51  97 N10       29.98S FOG
HILL CITY KS   LGT RAIN  61  60  97 N9        29.96S
IMPERIAL NEB   CLOUDY    53  48  83 NE12      29.99F
MCCOOK NEB     LGT RAIN  56  55  97 NE10      29.97F
AKRON CO       CLOUDY    47  44  90 NE10      30.01S FOG
BURLINGTON CO  CLOUDY    50  49  96 NE10      30.00S
LIMON CO         N/A    N/A N/A N/A MISG      30.00F
$$

...UNOFFICIAL OBSERVATIONS...

CITY           SKY/WX    TMP DP  RH WIND       PRES   REMARKS
LENORA KS        N/A     56  32  40 MISG        N/A
NORTON KS      CLOUDY    57  54  88 NW7       29.96S
SHARON SPRINGS   N/A     54  53  97 NE8         N/A
KIT CARSON CO    N/A     52  49  89 MISG        N/A
YUMA CO        CLOUDY    48  46  93 NE8       30.00F
$$



USA.gov is the U.S. government's official web portal to all federal, state and local government web resources and services.